| time (UTC) | temp F | wind direction | speed MPH | gust MPH | rain 1hr in | rain 24hr in | rain mn in | humidity % | barometer mb |
| 20260504184612 | 62 | 238 | 1.0 | 12.0 | 0.00 | 0.00 | 0.00 | 35 | 1011.8 |
| 20260504184527 | 62 | 238 | 1.0 | 12.0 | 0.00 | 0.00 | 0.00 | 35 | 1011.8 |
| 20260504183039 | 64 | 5 | 8.0 | 13.0 | 0.00 | 0.00 | 0.00 | 35 | 1011.9 |
| 20260504181529 | 64 | 257 | 6.0 | 14.0 | 0.00 | 0.00 | 0.00 | 35 | 1012.1 |
| 20260504180030 | 62 | 219 | 8.0 | 16.0 | 0.00 | 0.00 | 0.00 | 40 | 1012.3 |
| 20260504174530 | 61 | 231 | 6.0 | 14.0 | 0.00 | 0.00 | 0.00 | 39 | 1012.4 |
| 20260504173029 | 61 | 226 | 4.0 | 13.0 | 0.00 | 0.00 | 0.00 | 37 | 1012.9 |
| 20260504171528 | 60 | 214 | 3.0 | 7.0 | 0.00 | 0.00 | 0.00 | 37 | 1013.1 |
| 20260504081529 | 31 | 336 | 0.0 | 2.0 | 0.00 | 0.00 | 0.00 | 70 | 1013.5 |
| 20260504044537 | 40 | 0 | 0.0 | 2.0 | 0.00 | 0.00 | 0.00 | 51 | 1014.2 |
| 20260504043029 | 40 | 0 | 0.0 | 3.0 | 0.00 | 0.00 | 0.00 | 50 | 1014.2 |
| 20260504041532 | 41 | 341 | 1.0 | 4.0 | 0.00 | 0.00 | 0.00 | 47 | 1014.2 |
| 20260504040033 | 42 | 342 | 3.0 | 4.0 | 0.00 | 0.00 | 0.00 | 46 | 1014.2 |
| 20260504034546 | 43 | 331 | 1.0 | 3.0 | 0.00 | 0.00 | 0.00 | 44 | 1014.2 |
| 20260504033029 | 45 | 336 | 1.0 | 3.0 | 0.00 | 0.00 | 0.00 | 43 | 1014.2 |
| 20260504031530 | 46 | 321 | 2.0 | 4.0 | 0.00 | 0.00 | 0.00 | 40 | 1014.2 |
| 20260504030042 | 48 | 297 | 1.0 | 3.0 | 0.00 | 0.00 | 0.00 | 38 | 1014.0 |
| 20260504024530 | 50 | 331 | 0.0 | 3.0 | 0.00 | 0.00 | 0.00 | 35 | 1013.7 |
| 20260504023031 | 53 | 313 | 1.0 | 2.0 | 0.00 | 0.00 | 0.00 | 32 | 1013.5 |
| 20260504021530 | 57 | 289 | 2.0 | 4.0 | 0.00 | 0.00 | 0.00 | 28 | 1013.3 |
| 20260504020032 | 58 | 277 | 2.0 | 6.0 | 0.00 | 0.00 | 0.00 | 23 | 1013.3 |
| 20260504014540 | 60 | 255 | 1.0 | 4.0 | 0.00 | 0.00 | 0.00 | 22 | 1013.3 |
| 20260504013033 | 61 | 281 | 2.0 | 4.0 | 0.00 | 0.00 | 0.00 | 21 | 1013.2 |
| 20260504011530 | 62 | 269 | 3.0 | 7.0 | 0.00 | 0.00 | 0.00 | 21 | 1013.3 |
| 20260504010030 | 63 | 277 | 2.0 | 9.0 | 0.00 | 0.00 | 0.00 | 21 | 1013.4 |
| 20260504004532 | 63 | 275 | 5.0 | 10.0 | 0.00 | 0.00 | 0.00 | 21 | 1013.4 |
| 20260504003035 | 64 | 264 | 6.0 | 12.0 | 0.00 | 0.00 | 0.00 | 17 | 1013.4 |
| 20260504001530 | 65 | 278 | 7.0 | 17.0 | 0.00 | 0.00 | 0.00 | 15 | 1013.5 |
| 20260504000030 | 67 | 254 | 9.0 | 16.0 | 0.00 | 0.00 | 0.00 | 16 | 1013.7 |
| 20260503234538 | 67 | 269 | 8.0 | 19.0 | 0.00 | 0.00 | 0.00 | 16 | 1013.8 |
| 20260503233030 | 67 | 256 | 11.0 | 22.0 | 0.00 | 0.00 | 0.00 | 15 | 1013.9 |
| 20260503231533 | 68 | 225 | 8.0 | 18.0 | 0.00 | 0.00 | 0.00 | 17 | 1013.9 |
| 20260503230030 | 68 | 263 | 6.0 | 23.0 | 0.00 | 0.00 | 0.00 | 16 | 1014.1 |
| 20260503224529 | 69 | 222 | 9.0 | 24.0 | 0.00 | 0.00 | 0.00 | 15 | 1014.0 |
| 20260503223030 | 70 | 271 | 13.0 | 25.0 | 0.00 | 0.00 | 0.00 | 15 | 1014.2 |
| 20260503221534 | 70 | 302 | 15.0 | 25.0 | 0.00 | 0.00 | 0.00 | 18 | 1014.4 |
| 20260503220031 | 70 | 263 | 10.0 | 19.0 | 0.00 | 0.00 | 0.00 | 18 | 1014.6 |
| 20260503214530 | 70 | 281 | 11.0 | 21.0 | 0.00 | 0.00 | 0.00 | 17 | 1014.7 |
| 20260503213036 | 70 | 254 | 9.0 | 24.0 | 0.00 | 0.00 | 0.00 | 19 | 1015.0 |
| 20260503211532 | 69 | 253 | 13.0 | 22.0 | 0.00 | 0.00 | 0.00 | 20 | 1015.2 |
| 20260503210031 | 69 | 261 | 11.0 | 25.0 | 0.00 | 0.00 | 0.00 | 19 | 1015.3 |
| 20260503204545 | 69 | 199 | 9.0 | 24.0 | 0.00 | 0.00 | 0.00 | 19 | 1015.5 |
| 20260503203031 | 69 | 236 | 7.0 | 23.0 | 0.00 | 0.00 | 0.00 | 20 | 1015.8 |
| 20260503201532 | 69 | 287 | 10.0 | 27.0 | 0.00 | 0.00 | 0.00 | 18 | 1016.0 |
| 20260503200033 | 69 | 288 | 14.0 | 25.0 | 0.00 | 0.00 | 0.00 | 18 | 1016.2 |
| 20260503194532 | 69 | 258 | 12.0 | 25.0 | 0.00 | 0.00 | 0.00 | 22 | 1016.4 |
| 20260503193039 | 69 | 240 | 12.0 | 23.0 | 0.00 | 0.00 | 0.00 | 22 | 1016.5 |
| 20260503191635 | 68 | 276 | 9.0 | 22.0 | 0.00 | 0.00 | 0.00 | 24 | 1016.7 |
| 20260503190036 | 67 | 300 | 10.0 | 23.0 | 0.00 | 0.00 | 0.00 | 25 | 1017.0 |